This is the latest recevied weather packets stored in our database for station/object LU3GHF-13. If no packets are shown the sender has not sent any weather packets the latest 10 day(s).
| Time | Temp. | Humidity | Pressure | Rain* | Wind** | Luminosity | Snow |
|---|---|---|---|---|---|---|---|
| 1788245891 | 18.33° C | 96% | 1009.2 hPa | - | - | - | - |
| 1788245245 | 18.33° C | 95% | 1009 hPa | - | - | - | - |
| 1788244631 | 18.33° C | 96% | 1009 hPa | - | - | - | - |
| 1788243972 | 18.89° C | 95% | 1009.1 hPa | - | - | - | - |
| 1788243314 | 18.33° C | 97% | 1009.1 hPa | - | - | - | - |
| 1788242710 | 18.89° C | 95% | 1009.1 hPa | - | - | - | - |
| 1788242105 | 18.89° C | 95% | 1009 hPa | - | - | - | - |
| 1788241467 | 18.33° C | 96% | 1009.1 hPa | - | - | - | - |
| 1788240855 | 18.89° C | 95% | 1009.2 hPa | - | - | - | - |
| 1788240253 | 18.89° C | 95% | 1008.8 hPa | - | - | - | - |
| 1788239639 | 19.44° C | 94% | 1008.7 hPa | - | - | - | - |
| 1788238989 | 18.89° C | 94% | 1009 hPa | - | - | - | - |
| 1788238362 | 18.89° C | 94% | 1009.1 hPa | - | - | - | - |
| 1788237738 | 19.44° C | 93% | 1009.3 hPa | - | - | - | - |
| 1788237123 | 19.44° C | 93% | 1009.5 hPa | - | - | - | - |
| 1788236465 | 20° C | 92% | 1009.5 hPa | - | - | - | - |
| 1788235846 | 19.44° C | 92% | 1009.4 hPa | - | - | - | - |
| 1788235233 | 19.44° C | 93% | 1009.7 hPa | - | - | - | - |
| 1788234594 | 20° C | 92% | 1009.7 hPa | - | - | - | - |
| 1788233993 | 20° C | 92% | 1009.7 hPa | - | - | - | - |
| 1788233367 | 20° C | 92% | 1009.8 hPa | - | - | - | - |
| 1788232743 | 20° C | 92% | 1009.9 hPa | - | - | - | - |
| 1788232137 | 19.44° C | 93% | 1010.1 hPa | - | - | - | - |
| 1788231485 | 20° C | 92% | 1010 hPa | - | - | - | - |
| 1788230881 | 20° C | 93% | 1010 hPa | - | - | - | - |
* Rain since midnight (hover to see other rain measurements)
** Current wind speed in m/s (hover to see current wind gust speed)